Terminal Aerodrome Forecast
Issued by NWS

Home | Current Version | Previous Version | Text Only | Print | Product List | Glossary On
Versions: 1 2 3 4 5 6 7 8 9 10 11 12 13 14 15 16 17 18 19 20 21 22 23 24 25 26 27 28 29 30 31 32 33 34 35
675
FTUS44 KEWX 202355 AAA
TAFSSF
TAF AMD
KSSF 202355Z 2100/2124 24006KT P6SM SKC
     FM210700 32006KT P6SM SKC
     FM211800 33012KT P6SM SKC=

USA.gov is the U.S. government's official web portal to all federal, state and local government web resources and services.